Location: Arbon
(43.0005°N, 0.7472°E)
Time: 08:52:38
(UTC+00:00)

Terra - Pass Details

Date: 22 April 2026
Orbit: 688 x 691 km, 97.9° (Epoch: 15 May)

Event Time Altitude Azimuth Distance (km) Brightness Sun altitude
Exits shadow 19:32:12 - 131° (SE) 2,181 3.7 -8.4°
Reaches altitude 10° 19:32:19 10° 131° (SE) 2,135 3.7 -8.4°
Maximum altitude 19:36:28 32° 68° (ENE) 1,173 2.6 -9.1°
Drops below altitude 10° 19:40:37 10° 6° (N) 2,148 4.6 -9.8°
Sets 19:43:03 0° 357° (N) 3,069 5.6 -10.2°
